Location: Unspecified
(0.0000°N, 0.0000°E)
Time: 20:59:40
(UTC+00:00)

N. Korean satellite - Visible Passes

Search period start: 18 October 2018 00:00
Search period end: 28 October 2018 00:00
Orbit: 459 x 510 km, 97.2° (Epoch: 17 October)

Date Brightness Start Highest point End Pass type
(mag) Time Alt. Az. Time Alt. Az. Time Alt. Az.
20 Oct 10.0 18:44:38 10° SW 18:46:56 16° W 18:49:15 10° WNW visible
21 Oct 8.3 18:19:09 10° S 18:22:34 39° W 18:26:02 10° NNW visible
24 Oct 9.8 18:40:03 10° SSW 18:42:40 19° W 18:45:19 10° NW visible
25 Oct 7.9 18:14:45 10° S 18:18:17 46° W 18:21:52 10° NNW visible
